| time (UTC) | temp C | wind direction | speed KPH | gust KPH | rain 1hr cm | rain 24hr cm | rain mn cm | humidity % | barometer mb |
| 20260506023044 | -17 | 244 | 0.0 | 0.0 | 0.00 | 0.00 | 0.00 | 1014.8 | |
| 20260506021539 | -17 | 244 | 0.0 | 0.0 | 0.00 | 0.00 | 0.00 | 1014.8 | |
| 20260506020034 | -17 | 244 | 0.0 | 0.0 | 0.00 | 0.00 | 0.00 | 1014.9 | |
| 20260506014532 | -17 | 244 | 0.0 | 0.0 | 0.00 | 0.00 | 0.00 | 1014.9 | |
| 20260506013026 | -17 | 244 | 0.0 | 0.0 | 0.00 | 0.00 | 0.00 | 1014.8 | |
| 20260506011523 | -17 | 244 | 0.0 | 0.0 | 0.00 | 0.00 | 0.00 | 1014.7 | |
| 20260506010016 | -17 | 244 | 0.0 | 0.0 | 0.00 | 0.00 | 0.00 | 1014.9 | |
| 20260506004522 | -17 | 244 | 0.0 | 0.0 | 0.00 | 0.00 | 0.00 | 1014.8 | |
| 20260506003010 | -17 | 244 | 0.0 | 0.0 | 0.00 | 0.00 | 0.00 | 1015.0 | |
| 20260506001503 | -17 | 244 | 0.0 | 0.0 | 0.00 | 0.00 | 0.00 | 1014.9 | |
| 20260505234601 | -17 | 244 | 0.0 | 0.0 | 0.00 | 0.00 | 0.00 | 1014.9 | |
| 20260505233102 | -17 | 244 | 0.0 | 0.0 | 0.00 | 0.00 | 0.00 | 1014.9 | |
| 20260505231552 | -17 | 244 | 0.0 | 0.0 | 0.00 | 0.00 | 0.00 | 1014.9 | |
| 20260505230041 | -17 | 244 | 0.0 | 0.0 | 0.00 | 0.00 | 0.00 | 1014.8 | |
| 20260505224537 | -17 | 244 | 0.0 | 0.0 | 0.00 | 0.00 | 0.00 | 1015.0 | |
| 20260505223036 | -17 | 244 | 0.0 | 0.0 | 0.00 | 0.00 | 0.00 | 1015.0 | |
| 20260505221528 | -17 | 244 | 0.0 | 0.0 | 0.00 | 0.00 | 0.00 | 1014.9 | |
| 20260505220023 | -17 | 244 | 0.0 | 0.0 | 0.00 | 0.00 | 0.00 | 1014.9 | |
| 20260505214522 | -17 | 243 | 0.0 | 0.0 | 0.00 | 0.00 | 0.00 | 1014.8 | |
| 20260505213014 | -17 | 226 | 0.0 | 0.0 | 0.00 | 0.00 | 0.00 | 1014.9 | |
| 20260505211511 | -17 | 226 | 0.0 | 0.0 | 0.00 | 0.00 | 0.00 | 1015.0 | |
| 20260505210006 | -17 | 226 | 0.0 | 0.0 | 0.00 | 0.00 | 0.00 | 1015.0 | |
| 20260505204502 | -17 | 226 | 0.0 | 0.0 | 0.00 | 0.00 | 0.00 | 1014.9 | |
| 20260505203059 | -17 | 226 | 0.0 | 0.0 | 0.00 | 0.00 | 0.00 | 1014.9 | |
| 20260505201558 | -17 | 232 | 1.6 | 8.0 | 0.00 | 0.00 | 0.00 | 1014.8 | |
| 20260505200050 | -17 | 233 | 1.6 | 9.7 | 0.00 | 0.00 | 0.00 | 1014.8 | |
| 20260505194551 | -17 | 244 | 0.0 | 6.4 | 0.00 | 0.00 | 0.00 | 1014.7 | |
| 20260505193040 | -17 | 259 | 1.6 | 9.7 | 0.00 | 0.00 | 0.00 | 1014.7 | |
| 20260505191537 | -17 | 238 | 1.6 | 12.9 | 0.00 | 0.00 | 0.00 | 1014.6 | |
| 20260505190037 | -17 | 235 | 4.8 | 12.9 | 0.00 | 0.00 | 0.00 | 1014.5 | |
| 20260505184526 | -17 | 246 | 3.2 | 14.5 | 0.00 | 0.00 | 0.00 | 1014.4 | |
| 20260505183022 | -17 | 225 | 4.8 | 14.5 | 0.00 | 0.00 | 0.00 | 1014.2 | |
| 20260505181518 | -17 | 238 | 3.2 | 17.7 | 0.00 | 0.00 | 0.00 | 1014.1 | |
| 20260505180015 | -17 | 277 | 3.2 | 16.1 | 0.00 | 0.00 | 0.00 | 1014.2 | |
| 20260505174509 | -17 | 222 | 0.0 | 16.1 | 0.00 | 0.00 | 0.00 | 1014.2 | |
| 20260505173004 | -17 | 240 | 6.4 | 17.7 | 0.00 | 0.00 | 0.00 | 1014.2 | |
| 20260505171606 | -17 | 225 | 6.4 | 19.3 | 0.00 | 0.00 | 0.00 | 1014.1 | |
| 20260505170056 | -17 | 224 | 6.4 | 24.1 | 0.00 | 0.00 | 0.00 | 1014.2 | |
| 20260505164614 | -17 | 232 | 6.4 | 20.9 | 0.00 | 0.00 | 0.00 | 1014.1 | |
| 20260505163053 | -17 | 235 | 3.2 | 17.7 | 0.00 | 0.00 | 0.00 | 1014.2 | |
| 20260505161543 | -17 | 223 | 1.6 | 16.1 | 0.00 | 0.00 | 0.00 | 1014.1 | |
| 20260505153029 | -17 | 207 | 0.0 | 12.9 | 0.00 | 0.00 | 0.00 | 1014.2 | |
| 20260505151524 | -17 | 265 | 1.6 | 12.9 | 0.00 | 0.00 | 0.00 | 1014.3 | |
| 20260505130105 | -17 | 254 | 11.3 | 20.9 | 0.00 | 0.00 | 0.00 | 1014.3 | |
| 20260505124541 | -17 | 250 | 8.0 | 17.7 | 0.00 | 0.00 | 0.00 | 1014.2 | |
| 20260505123039 | -17 | 248 | 6.4 | 17.7 | 0.00 | 0.00 | 0.00 | 1014.2 | |
| 20260505121532 | -17 | 242 | 3.2 | 17.7 | 0.00 | 0.00 | 0.00 | 1014.1 | |
| 20260505120027 | -17 | 227 | 6.4 | 19.3 | 0.00 | 0.00 | 0.00 | 1014.1 | |
| 20260505114522 | -17 | 263 | 3.2 | 20.9 | 0.00 | 0.00 | 0.00 | 1014.1 | |
| 20260505113017 | -17 | 277 | 1.6 | 14.5 | 0.00 | 0.00 | 0.00 | 1014.1 | |
| 20260505111519 | -17 | 227 | 3.2 | 12.9 | 0.00 | 0.00 | 0.00 | 1014.1 | |
| 20260505101601 | -17 | 250 | 3.2 | 11.3 | 0.00 | 0.00 | 0.00 | 1014.1 | |
| 20260505100051 | -17 | 254 | 0.0 | 8.0 | 0.00 | 0.00 | 0.00 | 1014.1 | |
| 20260505094546 | -17 | 300 | 1.6 | 14.5 | 0.00 | 0.00 | 0.00 | 1014.0 | |
| 20260505093042 | -17 | 240 | 0.0 | 12.9 | 0.00 | 0.00 | 0.00 | 1014.0 | |
| 20260505091538 | -17 | 247 | 1.6 | 6.4 | 0.00 | 0.00 | 0.00 | 1013.8 | |
| 20260505090038 | -17 | 265 | 1.6 | 11.3 | 0.00 | 0.00 | 0.00 | 1013.8 | |
| 20260505084529 | -17 | 294 | 0.0 | 11.3 | 0.00 | 0.00 | 0.00 | 1013.7 | |
| 20260505083025 | -17 | 269 | 0.0 | 1.6 | 0.00 | 0.00 | 0.00 | 1013.7 | |
| 20260505081529 | -17 | 268 | 0.0 | 3.2 | 0.00 | 0.00 | 0.00 | 1013.7 | |
| 20260505080016 | -17 | 50 | 0.0 | 8.0 | 0.00 | 0.00 | 0.00 | 1013.5 | |
| 20260505074512 | -17 | 53 | 0.0 | 8.0 | 0.00 | 0.00 | 0.00 | 1013.6 | |
| 20260505073010 | -17 | 52 | 0.0 | 6.4 | 0.00 | 0.00 | 0.00 | 1013.6 | |
| 20260505071511 | -17 | 271 | 0.0 | 0.0 | 0.00 | 0.00 | 0.00 | 1013.5 | |
| 20260505070111 | -17 | 59 | 0.0 | 3.2 | 0.00 | 0.00 | 0.00 | 1013.5 | |
| 20260505064559 | -17 | 360 | 1.6 | 9.7 | 0.00 | 0.00 | 0.00 | 1013.6 | |
| 20260505063049 | -17 | 54 | 0.0 | 9.7 | 0.00 | 0.00 | 0.00 | 1013.5 | |
| 20260505061546 | -17 | 165 | 0.0 | 0.0 | 0.00 | 0.00 | 0.00 | 1013.6 | |
| 20260505060040 | -17 | 178 | 0.0 | 0.0 | 0.00 | 0.00 | 0.00 | 1013.7 | |
| 20260505054549 | -17 | 178 | 0.0 | 0.0 | 0.00 | 0.00 | 0.00 | 1013.6 | |
| 20260505053045 | -17 | 181 | 0.0 | 0.0 | 0.00 | 0.00 | 0.00 | 1013.6 | |
| 20260505051536 | -17 | 182 | 0.0 | 0.0 | 0.00 | 0.00 | 0.00 | 1013.7 | |
| 20260505041514 | -17 | 181 | 0.0 | 0.0 | 0.00 | 0.00 | 0.00 | 1013.0 | |
| 20260505040007 | -17 | 182 | 0.0 | 0.0 | 0.00 | 0.00 | 0.00 | 1012.8 | |
| 20260505034501 | -17 | 182 | 0.0 | 0.0 | 0.00 | 0.00 | 0.00 | 1013.1 | |
| 20260505033100 | -17 | 182 | 0.0 | 0.0 | 0.00 | 0.00 | 0.00 | 1013.1 | |
| 20260505031555 | -17 | 182 | 0.0 | 0.0 | 0.00 | 0.00 | 0.00 | 1013.2 | |
| 20260505030049 | -17 | 182 | 0.0 | 0.0 | 0.00 | 0.00 | 0.00 | 1013.0 | |
| 20260505024545 | -17 | 182 | 0.0 | 0.0 | 0.00 | 0.00 | 0.00 | 1013.1 |